Погода в Атланте

США     33°06′52″N   94°10′05″W
В апреле 2022 года жителям России запретили посещать сайт meteo.paraplan.net по решению Генеральной прокуратуры. Аудитория сайта уменьшилась в 10 раз. Владельцы сайта не видят смысла в поддержке погодного сервера в таких условиях. Сайт будет закрыт в октябре.
темп.,
°C
ветер,
м/с
пор.,
м/с
влажн.,
%
обл.,
%
осадки,
мм/ч
давл.,
гПа
погр.,
м
30 сентября, пт
пт3001:00+12всв29530 0.0 1021175
04:00+11св25580 0.0 1020103
07:00+10св25630 0.0 102187
10:00+18св35440 0.0 1021440
13:00+24св34300 0.0 10191264
16:00+26св34240 0.0 10151515
19:00+19всв12420 0.0 101511
22:00+16всв22440 0.0 101611
1 октября, сб
сб101:00+14всв22500 0.0 101611
04:00+13св22500 0.0 101717
07:00+11ссв22510 0.0 101814
10:00+20св23330 0.0 1019358
13:00+26св23220 0.0 10181269
16:00+27св23200 0.0 10161615
19:00+20вюв11380 0.0 101611
22:00+17всв11415 0.0 101811
2 октября, вс
вс201:00+15св11460 0.0 101811
04:00+14ссв22480 0.0 101925
07:00+12ссв23490 0.0 102046
10:00+20св243235 0.0 1022351
13:00+27св342197 0.0 10211202
16:00+28всв34212 0.0 10181677
19:00+21всв113977 0.0 101911
22:00+19св2244100 0.0 102029
3 октября, пн
пн301:00+17св2346100 0.0 102050
04:00+15св2247100 0.0 102015
07:00+14св2250100 0.0 102127
10:00+21всв2336100 0.0 1022313
13:00+27всв2225100 0.0 10211087
16:00+28св2324100 0.0 10181545
19:00+21всв2242100 0.0 101824
22:00+20в224099 0.0 101914
4 октября, вт
вт401:00+18всв114977 0.0 101911
04:00+17св2254100 0.0 101822
07:00+16всв226082 0.0 101936
10:00+22в234418 0.0 1020388
13:00+29всв222943 0.0 10181561
16:00+29св22275 0.0 10152175
19:00+23всв22450 0.0 101619
22:00+20в23490 0.0 101750